Temp
-12 -12 -12 -12 -12 -13 -13 -13 -13 -13 -13 -13 -14 -14 -14 -14 -14 -14 -14 -14 -14 -15 -15 -15 -15 -15 -15 -15 -15 -15 -15 -15 -15 -15 -15 -15 -15 -15 -14 -14 -14 -14 -15 -15 -15 -15 -15 -15 -15 -15 -15 -16 -16 -16 -16 -16 -16 -16 -16 -16 -16 -16 -16
-12 -12 -12 -13 -13 -13 -13 -13 -13 -13 -13 -14 -14 -14 -14 -14 -14 -14 -14 -14 -15 -15 -15 -15 -15 -15 -15 -15 -15 -15 -15 -15 -15 -15 -15 -15 -15 -15 -15 -15 -15 -15 -15 -15 -15 -15 -15 -15 -15 -15 -16 -16 -16 -16 -16 -16 -16 -16 -16 -16 -16 -16 -16
-12 -12 -12 -13 -13 -13 -13 -13 -13 -13 -14 -14 -14 -14 -14 -14 -14 -14 -14 -15 -15 -15 -15 -15 -15 -15 -15 -15 -15 -15 -15 -15 -15 -15 -15 -15 -15 -15 -15 -15 -15 -15 -15 -15 -15 -15 -15 -15 -16 -16 -16 -16 -16 -16 -16 -16 -16 -16 -16 -16 -16 -16 -16
-12 -12 -13 -13 -13 -13 -13 -13 -13 -13 -14 -14 -14 -14 -14 -14 -14 -14 -14 -15 -15 -15 -15 -15 -15 -15 -15 -15 -15 -15 -15 -15 -15 -15 -15 -15 -15 -15 -15 -15 -15 -15 -15 -15 -15 -16 -16 -16 -16 -16 -16 -16 -16 -16 -16 -16 -16 -16 -16 -16 -16 -16 -16
-13 -13 -13 -13 -13 -13 -13 -13 -13 -14 -14 -14 -14 -14 -14 -14 -14 -14 -15 -15 -15 -15 -15 -15 -15 -15 -15 -15 -15 -15 -15 -15 -15 -15 -15 -15 -15 -15 -15 -15 -15 -15 -15 -16 -16 -16 -16 -16 -16 -16 -17 -17 -17 -17 -17 -17 -17 -17 -17 -17 -16 -16 -16
-13 -13 -13 -13 -13 -13 -13 -13 -14 -14 -14 -14 -14 -14 -14 -14 -14 -15 -15 -15 -15 -15 -15 -15 -15 -15 -15 -15 -15 -15 -15 -15 -15 -15 -15 -15 -15 -15 -15 -15 -15 -16 -16 -16 -16 -16 -16 -17 -17 -17 -17 -17 -17 -17 -17 -17 -17 -17 -17 -17 -17 -16 -16
-13 -13 -13 -13 -13 -13 -13 -14 -14 -14 -14 -14 -14 -14 -14 -14 -15 -15 -15 -15 -15 -15 -15 -15 -15 -15 -15 -15 -15 -15 -15 -15 -15 -15 -15 -15 -15 -15 -15 -15 -16 -16 -16 -16 -16 -17 -17 -17 -17 -17 -17 -17 -17 -17 -17 -17 -17 -17 -17 -17 -17 -17 -17
-13 -14 -14 -14 -14 -14 -14 -14 -14 -14 -14 -14 -14 -14 -14 -14 -15 -15 -15 -15 -15 -15 -15 -15 -15 -15 -15 -15 -15 -15 -15 -15 -15 -15 -15 -15 -15 -15 -16 -16 -16 -16 -16 -16 -17 -17 -17 -17 -17 -17 -17 -17 -17 -17 -17 -17 -17 -17 -17 -17 -17 -17 -17
-13 -14 -14 -14 -14 -14 -14 -14 -14 -14 -14 -14 -14 -14 -14 -14 -15 -15 -15 -15 -15 -15 -15 -15 -15 -15 -15 -15 -15 -15 -15 -15 -15 -15 -15 -15 -15 -16 -16 -16 -16 -16 -16 -17 -17 -17 -17 -17 -17 -17 -17 -17 -17 -17 -17 -17 -17 -17 -17 -17 -18 -18 -18
-13 -14 -14 -14 -14 -14 -14 -14 -14 -14 -14 -14 -14 -14 -14 -15 -15 -15 -15 -15 -15 -15 -15 -15 -15 -15 -15 -15 -15 -15 -15 -15 -15 -15 -15 -16 -16 -16 -16 -16 -16 -16 -17 -17 -17 -17 -17 -17 -17 -17 -17 -17 -17 -17 -17 -17 -17 -17 -18 -18 -18 -19 -19
-14 -14 -14 -14 -14 -14 -14 -14 -14 -14 -14 -14 -14 -15 -15 -15 -15 -15 -15 -15 -15 -15 -15 -15 -15 -15 -15 -16 -16 -16 -16 -16 -16 -16 -16 -16 -16 -16 -16 -16 -16 -17 -17 -17 -17 -17 -17 -17 -17 -17 -17 -17 -17 -17 -17 -17 -18 -18 -18 -18 -19 -19 -20
-14 -14 -14 -14 -14 -14 -14 -14 -14 -14 -14 -14 -15 -15 -15 -15 -15 -15 -15 -15 -15 -15 -16 -16 -16 -16 -16 -16 -16 -16 -16 -16 -16 -16 -16 -16 -16 -16 -16 -16 -17 -17 -17 -17 -17 -17 -17 -17 -17 -17 -18 -18 -18 -17 -17 -17 -18 -18 -19 -19 -19 -20 -20
-13 -14 -14 -14 -14 -14 -14 -14 -14 -14 -14 -15 -15 -15 -15 -15 -15 -15 -15 -15 -15 -16 -16 -16 -16 -16 -16 -16 -16 -16 -16 -16 -16 -16 -16 -16 -16 -16 -17 -17 -17 -17 -17 -17 -17 -17 -17 -17 -17 -17 -18 -18 -18 -18 -18 -18 -18 -18 -19 -19 -19 -20 -20
-13 -14 -14 -14 -14 -14 -14 -14 -15 -15 -15 -15 -15 -15 -15 -15 -15 -15 -15 -15 -15 -16 -16 -16 -16 -16 -16 -16 -16 -16 -16 -16 -16 -16 -16 -16 -17 -17 -17 -17 -17 -17 -17 -17 -17 -17 -17 -17 -17 -18 -18 -18 -18 -18 -18 -18 -18 -19 -19 -20 -20 -20 -21
-14 -14 -14 -14 -14 -14 -14 -15 -15 -15 -15 -15 -15 -15 -15 -15 -15 -15 -15 -15 -16 -16 -16 -16 -16 -16 -16 -16 -16 -16 -16 -16 -16 -16 -16 -17 -17 -17 -17 -17 -17 -17 -17 -17 -17 -17 -17 -17 -17 -17 -18 -18 -18 -18 -18 -19 -19 -19 -20 -20 -21 -21 -21
-14 -14 -14 -14 -14 -14 -14 -14 -15 -15 -15 -15 -15 -15 -15 -15 -15 -15 -15 -16 -16 -16 -16 -16 -16 -16 -16 -16 -16 -16 -16 -16 -16 -17 -17 -17 -17 -17 -17 -17 -17 -17 -17 -17 -17 -17 -17 -17 -17 -17 -18 -18 -18 -18 -18 -19 -19 -20 -20 -20 -21 -21 -21
-14 -14 -14 -14 -14 -14 -14 -14 -14 -14 -14 -14 -15 -15 -15 -15 -15 -15 -16 -16 -16 -16 -16 -16 -16 -16 -16 -16 -16 -16 -16 -16 -16 -17 -17 -17 -17 -17 -17 -17 -17 -17 -17 -17 -17 -17 -17 -17 -17 -18 -18 -18 -18 -18 -18 -19 -19 -20 -20 -20 -21 -21 -21
-14 -14 -14 -14 -14 -14 -14 -14 -14 -14 -14 -15 -15 -15 -15 -15 -15 -16 -16 -16 -16 -16 -16 -16 -16 -16 -16 -16 -16 -16 -16 -16 -17 -17 -17 -17 -17 -17 -17 -17 -17 -17 -17 -17 -17 -17 -17 -18 -18 -18 -18 -18 -18 -18 -18 -19 -19 -20 -20 -21 -21 -21 -21
-14 -14 -14 -14 -14 -14 -14 -14 -14 -14 -15 -15 -15 -15 -15 -15 -16 -16 -16 -16 -16 -16 -16 -16 -16 -16 -16 -16 -16 -16 -16 -16 -17 -17 -17 -17 -17 -17 -17 -18 -18 -18 -18 -18 -18 -18 -18 -18 -18 -18 -18 -18 -18 -18 -19 -19 -20 -20 -21 -21 -21 -21 -21
-14 -14 -14 -14 -14 -14 -14 -14 -15 -15 -15 -15 -15 -15 -15 -16 -16 -16 -16 -16 -16 -16 -16 -16 -16 -16 -16 -16 -16 -16 -16 -17 -17 -17 -17 -17 -17 -17 -18 -18 -18 -18 -18 -18 -18 -18 -18 -18 -18 -18 -18 -18 -19 -19 -19 -20 -20 -20 -21 -21 -22 -22 -22
-14 -14 -14 -14 -14 -14 -15 -15 -15 -15 -15 -15 -15 -15 -15 -16 -16 -16 -16 -16 -16 -16 -16 -16 -16 -16 -16 -16 -16 -16 -16 -17 -17 -17 -17 -17 -17 -18 -18 -18 -18 -18 -18 -18 -18 -18 -18 -18 -18 -19 -19 -19 -19 -19 -20 -20 -20 -21 -21 -22 -22 -22 -22
-14 -14 -14 -14 -14 -15 -15 -15 -15 -15 -15 -15 -15 -15 -15 -16 -16 -16 -16 -16 -16 -16 -16 -16 -16 -16 -16 -16 -16 -16 -17 -17 -17 -17 -17 -17 -17 -18 -18 -18 -18 -18 -18 -18 -18 -18 -18 -18 -19 -19 -19 -19 -19 -20 -20 -20 -21 -21 -21 -22 -22 -22 -22
-14 -14 -14 -14 -15 -15 -15 -15 -15 -15 -15 -15 -15 -15 -15 -16 -16 -16 -16 -16 -16 -16 -16 -16 -16 -16 -16 -16 -16 -16 -17 -17 -17 -17 -17 -17 -18 -18 -18 -18 -18 -18 -18 -18 -18 -18 -18 -19 -19 -19 -19 -20 -20 -20 -20 -21 -21 -22 -22 -22 -22 -22 -22
-14 -14 -14 -14 -15 -15 -15 -15 -15 -15 -15 -15 -15 -15 -15 -16 -16 -16 -16 -16 -16 -16 -16 -16 -16 -16 -16 -16 -16 -16 -17 -17 -17 -17 -17 -17 -18 -18 -18 -18 -18 -18 -18 -18 -18 -18 -19 -19 -19 -19 -20 -20 -20 -21 -21 -21 -22 -22 -22 -22 -22 -22 -22
-14 -14 -14 -14 -14 -15 -15 -15 -15 -15 -15 -15 -15 -15 -15 -16 -16 -16 -16 -16 -16 -16 -16 -16 -16 -16 -16 -16 -16 -17 -17 -17 -17 -17 -17 -17 -18 -18 -18 -18 -18 -18 -18 -18 -18 -19 -19 -19 -19 -19 -20 -20 -20 -21 -21 -21 -22 -22 -22 -22 -22 -22 -22
-14 -14 -14 -14 -14 -15 -15 -15 -15 -15 -15 -15 -15 -16 -16 -16 -16 -16 -16 -16 -16 -16 -16 -16 -16 -16 -16 -16 -16 -17 -17 -17 -17 -17 -17 -17 -18 -18 -18 -18 -18 -18 -18 -18 -18 -19 -19 -19 -19 -19 -20 -20 -20 -21 -21 -21 -22 -22 -22 -22 -22 -22 -22
-14 -14 -14 -14 -14 -14 -15 -15 -15 -15 -15 -15 -16 -16 -16 -16 -16 -16 -16 -16 -16 -16 -16 -16 -16 -16 -16 -16 -16 -17 -17 -17 -17 -17 -17 -18 -18 -18 -18 -18 -18 -18 -18 -18 -18 -19 -19 -19 -19 -19 -20 -20 -20 -21 -21 -21 -22 -22 -22 -22 -22 -22 -22
-14 -14 -14 -14 -14 -14 -15 -15 -15 -15 -15 -15 -15 -15 -16 -16 -16 -16 -16 -16 -16 -16 -16 -16 -16 -16 -16 -16 -16 -16 -17 -17 -17 -17 -17 -18 -18 -18 -18 -18 -18 -18 -19 -19 -18 -19 -19 -19 -19 -20 -20 -20 -21 -21 -21 -22 -22 -22 -22 -22 -22 -22 -22
-14 -14 -14 -14 -14 -14 -15 -15 -15 -15 -15 -15 -15 -15 -15 -16 -16 -16 -16 -16 -16 -16 -16 -16 -16 -16 -16 -16 -16 -16 -17 -17 -17 -17 -17 -18 -18 -18 -18 -18 -18 -18 -19 -19 -19 -19 -19 -19 -20 -20 -20 -21 -21 -21 -22 -22 -22 -22 -22 -22 -22 -22 -22
-14 -14 -14 -14 -14 -15 -15 -15 -15 -15 -15 -15 -15 -15 -15 -15 -15 -16 -16 -16 -16 -16 -16 -16 -16 -16 -16 -16 -16 -16 -17 -17 -17 -17 -17 -18 -18 -18 -18 -18 -18 -19 -19 -19 -19 -19 -19 -20 -20 -20 -21 -21 -21 -22 -22 -22 -22 -22 -22 -22 -22 -22 -22
-14 -14 -14 -14 -14 -15 -15 -15 -15 -15 -15 -15 -15 -15 -15 -15 -15 -16 -16 -16 -16 -16 -16 -16 -16 -16 -16 -16 -17 -17 -17 -17 -17 -17 -17 -18 -18 -18 -18 -18 -18 -19 -19 -19 -19 -19 -20 -20 -20 -21 -21 -21 -22 -22 -22 -22 -23 -23 -23 -23 -23 -23 -22
-14 -14 -14 -14 -15 -15 -15 -15 -15 -15 -15 -15 -15 -15 -15 -15 -15 -16 -16 -16 -16 -16 -16 -16 -16 -16 -16 -17 -17 -17 -17 -17 -17 -17 -17 -18 -18 -18 -18 -19 -19 -19 -19 -19 -19 -20 -20 -21 -21 -21 -21 -22 -22 -22 -23 -23 -23 -23 -23 -23 -23 -23 -23
-15 -14 -15 -15 -15 -15 -15 -15 -15 -15 -15 -15 -15 -15 -15 -15 -16 -16 -16 -16 -16 -16 -16 -16 -16 -17 -17 -17 -17 -17 -17 -17 -18 -18 -18 -18 -18 -18 -19 -19 -19 -19 -19 -19 -20 -20 -20 -21 -21 -21 -22 -22 -22 -23 -23 -23 -23 -23 -23 -23 -23 -23 -22
-15 -15 -15 -15 -15 -15 -15 -15 -15 -15 -15 -15 -15 -15 -16 -16 -16 -16 -16 -16 -16 -16 -16 -17 -17 -17 -17 -17 -17 -17 -17 -17 -18 -18 -18 -18 -18 -19 -19 -19 -19 -19 -19 -19 -20 -20 -21 -21 -21 -22 -22 -22 -23 -23 -23 -23 -23 -23 -23 -23 -23 -22 -22
-15 -15 -15 -15 -15 -15 -15 -15 -15 -15 -15 -15 -16 -16 -16 -16 -16 -16 -16 -16 -17 -17 -17 -17 -17 -17 -17 -17 -17 -17 -17 -18 -18 -18 -18 -18 -18 -18 -18 -19 -19 -19 -19 -19 -20 -21 -21 -21 -21 -22 -22 -23 -23 -23 -23 -23 -23 -23 -23 -23 -23 -22 -22
-15 -15 -15 -15 -15 -15 -15 -15 -15 -15 -16 -16 -16 -16 -16 -16 -16 -16 -17 -17 -17 -17 -17 -17 -17 -17 -17 -17 -18 -18 -18 -18 -18 -18 -18 -18 -18 -19 -19 -19 -19 -19 -19 -20 -20 -21 -21 -22 -22 -22 -23 -23 -23 -23 -23 -23 -23 -23 -23 -23 -23 -23 -22
-15 -15 -15 -15 -15 -15 -15 -16 -16 -16 -16 -16 -16 -16 -16 -16 -16 -17 -17 -17 -17 -17 -17 -17 -17 -17 -17 -17 -18 -18 -18 -18 -18 -18 -19 -19 -19 -19 -19 -19 -19 -19 -20 -20 -20 -21 -22 -22 -22 -22 -23 -23 -23 -23 -23 -23 -23 -23 -23 -23 -23 -23 -23
Height
5822 5822 5821 5821 5821 5822 5822 5822 5822 5822 5822 5823 5823 5823 5823 5824 5824 5824 5824 5824 5824 5824 5824 5824 5824 5823 5823 5822 5821 5820 5819 5818 5816 5815 5813 5811 5809 5807 5805 5803 5801 5799 5797 5794 5792 5789 5787 5785 5783 5781 5779 5777 5775 5772 5770 5768 5765 5763 5760 5758 5756 5753 5751
5820 5819 5819 5819 5820 5820 5820 5820 5820 5820 5821 5821 5821 5822 5822 5822 5823 5823 5823 5823 5823 5823 5823 5823 5822 5822 5821 5820 5819 5818 5817 5816 5814 5812 5810 5809 5807 5805 5803 5801 5799 5796 5794 5791 5789 5787 5784 5782 5780 5778 5776 5774 5772 5769 5767 5764 5762 5760 5757 5755 5752 5750 5747
5818 5818 5817 5818 5818 5818 5818 5818 5818 5818 5819 5820 5820 5821 5821 5821 5821 5822 5822 5822 5822 5822 5821 5821 5820 5820 5819 5818 5818 5816 5815 5813 5812 5810 5808 5806 5805 5803 5801 5798 5796 5794 5791 5789 5786 5784 5782 5779 5777 5775 5773 5771 5769 5766 5764 5762 5759 5756 5754 5751 5748 5746 5743
5815 5816 5816 5816 5816 5816 5816 5816 5817 5817 5818 5818 5819 5819 5819 5820 5820 5820 5820 5820 5820 5820 5820 5819 5819 5818 5817 5816 5815 5814 5812 5811 5809 5808 5806 5804 5803 5800 5798 5796 5793 5791 5789 5786 5784 5782 5779 5777 5774 5772 5769 5767 5765 5763 5760 5758 5755 5752 5749 5746 5744 5741 5738
5813 5814 5814 5814 5814 5814 5815 5815 5816 5816 5817 5817 5817 5818 5818 5818 5819 5819 5819 5819 5819 5818 5818 5817 5817 5816 5815 5814 5813 5812 5810 5809 5807 5806 5804 5802 5800 5798 5796 5793 5791 5788 5786 5783 5781 5778 5776 5773 5771 5769 5766 5764 5761 5759 5757 5754 5751 5749 5745 5742 5739 5736 5733
5812 5812 5812 5812 5813 5813 5814 5814 5815 5815 5815 5816 5816 5816 5816 5817 5817 5817 5817 5817 5817 5817 5816 5815 5815 5814 5813 5812 5811 5809 5808 5807 5805 5803 5801 5799 5797 5795 5793 5790 5788 5785 5783 5780 5778 5775 5773 5770 5768 5765 5763 5760 5758 5755 5753 5750 5747 5744 5742 5738 5734 5731 5728
5810 5811 5811 5811 5812 5812 5813 5813 5813 5814 5814 5814 5814 5814 5815 5816 5816 5816 5816 5815 5815 5814 5814 5813 5813 5812 5811 5810 5809 5807 5806 5804 5802 5800 5798 5796 5794 5792 5790 5787 5785 5782 5779 5777 5774 5772 5769 5767 5764 5762 5759 5757 5754 5751 5749 5746 5743 5740 5737 5734 5730 5726 5723
5809 5809 5810 5810 5810 5811 5811 5812 5812 5812 5812 5812 5812 5813 5814 5814 5814 5814 5814 5813 5813 5812 5812 5811 5811 5810 5809 5808 5806 5805 5803 5801 5799 5797 5795 5793 5791 5789 5787 5784 5781 5779 5776 5774 5771 5769 5766 5763 5761 5758 5756 5753 5751 5748 5745 5743 5740 5736 5732 5729 5725 5721 5718
5807 5808 5808 5808 5809 5809 5809 5810 5810 5810 5810 5810 5811 5812 5812 5812 5812 5812 5812 5811 5811 5811 5810 5810 5809 5808 5807 5805 5804 5802 5800 5798 5796 5794 5793 5791 5788 5786 5783 5781 5778 5776 5773 5771 5768 5765 5763 5760 5757 5755 5753 5750 5748 5745 5742 5738 5736 5733 5728 5724 5720 5716 5713
5805 5805 5806 5806 5806 5807 5808 5808 5808 5808 5809 5809 5810 5810 5810 5810 5810 5810 5810 5809 5809 5809 5808 5808 5807 5806 5804 5803 5801 5799 5797 5795 5794 5792 5790 5788 5786 5783 5781 5778 5775 5773 5770 5768 5765 5762 5760 5757 5754 5752 5750 5747 5744 5742 5738 5734 5731 5728 5725 5721 5716 5713 5709
5803 5803 5803 5804 5804 5805 5805 5806 5806 5807 5807 5808 5808 5808 5808 5808 5808 5808 5808 5808 5807 5807 5806 5805 5805 5803 5802 5800 5798 5796 5795 5793 5791 5789 5787 5785 5783 5780 5778 5775 5773 5770 5767 5765 5762 5759 5757 5754 5751 5749 5746 5744 5741 5738 5735 5732 5727 5724 5721 5717 5713 5709 5705
5801 5801 5801 5802 5803 5803 5803 5804 5804 5805 5805 5806 5806 5806 5806 5806 5806 5806 5806 5806 5805 5805 5804 5803 5802 5801 5799 5797 5796 5794 5792 5790 5789 5787 5784 5782 5780 5778 5775 5773 5770 5767 5764 5762 5759 5756 5754 5751 5748 5746 5743 5740 5737 5734 5732 5729 5725 5721 5717 5713 5709 5705 5701
5799 5799 5799 5800 5801 5801 5801 5802 5803 5803 5804 5804 5804 5804 5804 5804 5804 5804 5804 5804 5803 5803 5802 5801 5800 5798 5797 5795 5793 5791 5789 5788 5786 5784 5782 5780 5777 5775 5773 5770 5767 5765 5762 5759 5756 5754 5751 5748 5745 5742 5740 5737 5733 5730 5728 5725 5722 5718 5714 5710 5706 5702 5698
5797 5797 5797 5798 5799 5799 5800 5800 5801 5801 5802 5802 5802 5802 5802 5802 5802 5802 5802 5802 5801 5800 5800 5798 5797 5796 5794 5792 5790 5789 5787 5785 5783 5781 5779 5777 5775 5772 5770 5768 5765 5762 5759 5756 5754 5751 5748 5745 5742 5739 5737 5734 5731 5727 5724 5721 5717 5714 5710 5706 5702 5699 5696
5795 5795 5795 5796 5797 5797 5798 5798 5799 5799 5800 5800 5800 5800 5800 5800 5800 5800 5800 5799 5799 5798 5797 5796 5794 5793 5791 5790 5788 5786 5784 5782 5780 5778 5776 5774 5772 5770 5767 5765 5762 5759 5757 5754 5751 5748 5745 5742 5740 5737 5734 5731 5728 5724 5721 5717 5714 5710 5707 5703 5700 5696 5693
5793 5793 5794 5794 5795 5795 5796 5796 5797 5797 5798 5798 5798 5798 5798 5798 5798 5798 5797 5797 5796 5795 5794 5793 5792 5790 5789 5787 5785 5783 5781 5780 5778 5776 5773 5771 5769 5767 5764 5762 5759 5756 5753 5750 5748 5745 5742 5740 5737 5734 5731 5729 5725 5722 5718 5715 5711 5707 5704 5700 5697 5693 5690
5790 5791 5791 5792 5793 5793 5794 5794 5795 5795 5795 5796 5796 5796 5796 5796 5796 5795 5795 5794 5793 5792 5791 5790 5789 5788 5786 5784 5782 5781 5779 5777 5775 5773 5771 5769 5766 5764 5761 5759 5756 5753 5750 5747 5744 5742 5739 5736 5734 5731 5728 5726 5723 5719 5715 5712 5708 5704 5701 5697 5694 5690 5687
5788 5789 5789 5790 5791 5791 5792 5792 5793 5793 5793 5793 5793 5793 5793 5793 5793 5793 5792 5791 5791 5790 5789 5788 5786 5785 5783 5781 5780 5778 5776 5774 5772 5770 5768 5765 5763 5761 5758 5756 5753 5750 5747 5744 5741 5739 5736 5733 5731 5728 5725 5722 5719 5716 5712 5708 5704 5701 5697 5694 5691 5688 5685
5786 5786 5787 5787 5788 5789 5789 5790 5790 5791 5791 5791 5791 5791 5791 5791 5790 5790 5789 5788 5788 5787 5786 5785 5783 5782 5780 5778 5776 5774 5773 5771 5769 5767 5764 5762 5760 5758 5755 5753 5750 5747 5744 5741 5738 5735 5733 5730 5727 5725 5722 5719 5715 5712 5708 5705 5701 5698 5694 5691 5688 5685 5683
5783 5784 5784 5785 5786 5786 5787 5788 5788 5789 5789 5788 5788 5788 5788 5788 5787 5787 5786 5785 5785 5784 5783 5782 5780 5779 5777 5775 5773 5771 5769 5767 5765 5763 5761 5759 5757 5754 5752 5749 5747 5744 5741 5738 5735 5732 5730 5727 5724 5721 5718 5715 5712 5708 5705 5702 5698 5695 5691 5688 5685 5682 5680
5781 5781 5782 5782 5783 5784 5784 5785 5786 5786 5786 5786 5785 5785 5785 5784 5784 5784 5783 5782 5782 5781 5780 5778 5777 5775 5773 5771 5769 5767 5765 5763 5762 5760 5758 5755 5753 5751 5749 5746 5743 5741 5738 5735 5732 5729 5727 5724 5721 5718 5715 5712 5708 5705 5702 5698 5695 5692 5689 5686 5683 5680 5677
5778 5779 5779 5780 5780 5781 5782 5782 5783 5783 5783 5783 5782 5782 5782 5781 5781 5781 5780 5779 5778 5777 5776 5775 5773 5772 5769 5767 5765 5764 5762 5760 5758 5756 5754 5752 5750 5747 5745 5743 5740 5737 5735 5732 5729 5726 5723 5720 5718 5715 5712 5709 5705 5702 5699 5696 5692 5689 5686 5683 5680 5677 5674
5776 5776 5777 5777 5778 5778 5779 5779 5780 5780 5780 5780 5779 5779 5779 5778 5778 5777 5777 5776 5775 5774 5773 5771 5769 5767 5765 5763 5761 5760 5758 5756 5754 5752 5750 5748 5746 5744 5742 5739 5737 5734 5731 5729 5726 5723 5720 5717 5714 5711 5708 5705 5702 5699 5696 5693 5690 5687 5684 5681 5678 5674 5671
5773 5773 5774 5774 5775 5775 5776 5776 5777 5777 5777 5777 5776 5776 5775 5775 5775 5774 5773 5772 5771 5770 5769 5767 5765 5763 5761 5759 5757 5756 5754 5752 5750 5748 5746 5744 5742 5740 5738 5736 5734 5731 5728 5726 5723 5720 5718 5715 5712 5709 5706 5703 5700 5697 5694 5690 5687 5684 5681 5678 5675 5671 5668
5770 5771 5771 5771 5772 5772 5773 5773 5773 5774 5774 5773 5773 5773 5772 5772 5771 5770 5770 5769 5767 5766 5764 5763 5761 5759 5757 5755 5753 5752 5750 5748 5746 5744 5742 5740 5738 5736 5734 5732 5730 5728 5725 5723 5720 5717 5715 5712 5710 5707 5704 5701 5697 5694 5691 5688 5685 5682 5678 5675 5672 5668 5665
5767 5768 5768 5768 5769 5769 5770 5770 5770 5770 5770 5770 5770 5769 5768 5768 5767 5766 5766 5764 5763 5762 5760 5758 5756 5755 5753 5751 5749 5747 5745 5743 5741 5740 5738 5736 5734 5732 5730 5728 5727 5724 5722 5720 5717 5714 5712 5709 5707 5704 5701 5698 5695 5692 5689 5685 5682 5679 5676 5672 5669 5665 5662
5764 5765 5765 5765 5766 5766 5766 5767 5767 5767 5767 5766 5766 5765 5765 5764 5763 5762 5761 5760 5759 5757 5756 5754 5752 5750 5749 5746 5744 5743 5741 5739 5737 5735 5734 5732 5730 5728 5726 5724 5723 5720 5718 5716 5713 5711 5708 5706 5703 5701 5698 5695 5692 5689 5686 5683 5680 5677 5673 5670 5666 5663 5660
5761 5761 5762 5762 5762 5763 5763 5763 5763 5763 5763 5763 5762 5762 5761 5760 5759 5758 5757 5756 5754 5753 5751 5749 5748 5746 5744 5742 5740 5738 5736 5735 5733 5731 5730 5728 5726 5724 5722 5720 5718 5716 5714 5712 5709 5707 5705 5702 5700 5697 5694 5692 5689 5686 5683 5680 5677 5674 5671 5668 5664 5661 5657
5758 5758 5758 5759 5759 5759 5759 5760 5760 5760 5759 5759 5758 5758 5757 5756 5755 5753 5752 5751 5750 5748 5747 5745 5744 5742 5740 5738 5736 5734 5732 5730 5728 5727 5725 5723 5721 5720 5718 5716 5714 5712 5710 5708 5705 5703 5701 5699 5697 5694 5691 5689 5686 5683 5680 5678 5675 5672 5669 5665 5662 5658 5655
5754 5755 5755 5756 5756 5756 5756 5756 5756 5756 5756 5755 5754 5753 5752 5751 5750 5749 5748 5747 5745 5744 5742 5741 5740 5738 5736 5734 5732 5730 5728 5726 5724 5722 5720 5719 5717 5716 5714 5713 5710 5708 5706 5704 5701 5699 5698 5696 5693 5691 5688 5686 5683 5680 5678 5675 5672 5669 5666 5663 5660 5656 5653
5751 5752 5752 5752 5753 5753 5753 5753 5752 5752 5751 5751 5750 5749 5748 5747 5746 5745 5743 5742 5741 5739 5738 5737 5735 5734 5732 5730 5728 5726 5724 5722 5720 5718 5716 5714 5713 5712 5711 5709 5707 5704 5702 5700 5698 5696 5694 5692 5690 5688 5686 5683 5680 5678 5675 5673 5670 5667 5664 5661 5658 5655 5651
5748 5748 5749 5749 5749 5749 5749 5749 5749 5748 5747 5747 5746 5744 5743 5742 5741 5740 5739 5738 5736 5735 5734 5732 5731 5729 5728 5726 5724 5722 5720 5718 5716 5714 5712 5711 5710 5708 5707 5705 5703 5701 5699 5697 5694 5692 5691 5689 5687 5685 5683 5680 5678 5676 5674 5671 5669 5666 5663 5660 5657 5653 5650
5744 5745 5745 5745 5745 5745 5745 5744 5744 5744 5743 5742 5741 5740 5739 5738 5737 5736 5734 5733 5732 5730 5729 5728 5726 5725 5723 5721 5719 5717 5716 5714 5713 5710 5709 5707 5706 5705 5703 5701 5699 5697 5695 5693 5691 5689 5688 5686 5685 5683 5681 5678 5676 5674 5672 5670 5667 5664 5662 5659 5656 5652 5649
5740 5740 5741 5741 5740 5740 5740 5740 5739 5739 5738 5737 5736 5735 5734 5733 5732 5731 5730 5728 5727 5726 5725 5723 5722 5720 5718 5716 5714 5713 5712 5710 5709 5706 5705 5703 5702 5700 5699 5697 5696 5694 5692 5690 5688 5686 5685 5684 5682 5680 5678 5676 5674 5672 5670 5668 5665 5663 5660 5657 5654 5650 5646
5736 5736 5736 5736 5736 5736 5736 5735 5735 5734 5734 5733 5732 5731 5729 5728 5727 5726 5725 5724 5723 5721 5720 5718 5717 5715 5714 5712 5710 5709 5708 5706 5704 5703 5701 5699 5698 5697 5695 5694 5692 5690 5688 5686 5685 5683 5682 5681 5680 5678 5676 5674 5672 5670 5668 5666 5663 5661 5658 5655 5652 5648 5645
5731 5731 5731 5731 5731 5731 5731 5731 5730 5730 5729 5728 5727 5726 5725 5724 5722 5721 5720 5719 5718 5717 5716 5714 5712 5711 5710 5708 5707 5705 5704 5702 5700 5699 5697 5696 5694 5693 5692 5690 5688 5687 5685 5683 5682 5680 5679 5678 5677 5676 5674 5672 5670 5668 5666 5664 5661 5659 5656 5653 5650 5647 5643
5726 5726 5726 5727 5726 5726 5726 5725 5725 5725 5724 5723 5722 5721 5720 5719 5718 5717 5716 5715 5714 5713 5711 5710 5708 5707 5706 5704 5702 5701 5699 5698 5696 5695 5693 5692 5691 5689 5688 5686 5684 5683 5681 5680 5678 5677 5677 5676 5675 5673 5672 5670 5668 5666 5664 5661 5659 5657 5654 5652 5648 5645 5641
Wind_Speed
23 22 22 22 22 20 18 18 17 16 15 15 15 15 15 14 15 15 15 13 11 11 12 14 16 17 19 20 21 22 24 25 25 26 27 28 29 31 32 33 33 33 34 34 34 34 35 35 35 35 35 34 34 35 35 36 37 38 38 39 40 41 43
22 22 21 20 19 18 17 16 15 14 14 14 14 14 14 14 15 14 13 11 10 11 13 16 17 18 19 21 22 23 24 24 25 26 27 28 30 31 32 33 33 33 33 34 34 34 35 35 35 34 34 34 34 35 36 37 38 39 39 40 41 43 44
20 20 19 18 17 17 15 14 14 13 13 14 13 13 14 14 14 13 12 11 11 13 15 17 18 19 20 22 23 23 24 24 25 26 28 29 30 31 32 32 33 33 33 34 34 34 34 34 34 34 34 34 34 35 36 37 39 39 40 41 42 43 43
17 16 16 16 17 16 15 14 13 13 14 14 14 14 14 13 13 13 12 12 13 15 16 18 19 20 21 22 23 23 24 25 26 27 28 29 30 31 31 32 32 33 33 33 33 33 34 33 33 34 34 35 35 36 37 38 39 40 41 41 42 43 44
15 14 15 15 15 15 15 14 14 15 15 15 15 14 13 13 13 13 13 13 14 16 17 18 19 21 22 22 23 23 24 25 26 27 28 29 29 30 31 32 32 33 33 33 33 33 33 33 33 34 34 35 36 37 38 38 39 39 40 41 42 43 44
15 15 15 15 15 15 15 15 15 16 16 16 16 14 13 13 14 14 14 14 15 17 18 19 20 21 22 22 23 24 24 25 26 27 28 28 29 31 32 32 33 33 33 33 33 33 33 33 33 34 34 35 36 37 37 38 38 38 40 42 43 44 45
16 15 15 16 16 15 15 15 16 16 16 16 16 15 14 15 15 15 14 15 16 17 18 20 21 21 22 22 23 24 25 26 26 27 28 29 30 31 32 33 33 33 33 33 33 32 33 33 33 34 35 36 36 37 37 37 39 41 42 44 45 45 45
17 16 17 17 16 16 15 15 16 16 16 16 16 16 15 16 15 15 15 16 17 18 19 20 21 21 22 23 23 24 25 26 26 27 28 29 31 32 33 34 34 34 34 33 33 32 33 33 34 35 35 36 36 36 37 39 41 43 45 45 45 45 46
18 18 18 17 17 16 15 15 16 16 17 17 17 16 16 16 15 15 16 17 18 19 20 20 21 22 23 23 24 24 25 26 27 28 29 31 32 33 34 35 35 35 34 33 33 33 33 34 35 35 36 36 37 38 40 42 43 44 45 45 45 44 45
18 18 18 17 17 16 15 16 16 17 18 18 17 16 16 16 16 16 17 17 18 19 19 20 21 22 23 23 24 24 26 27 29 30 31 32 33 34 35 36 36 35 34 34 33 34 34 35 36 37 37 38 39 41 42 44 44 44 44 43 43 42 42
18 18 18 18 18 17 16 16 17 17 18 17 17 16 16 16 17 17 17 18 19 19 19 21 22 23 23 23 24 25 27 29 30 31 32 33 34 35 36 36 36 36 35 34 34 35 35 36 37 38 38 39 40 42 43 43 43 43 42 42 41 40 40
17 18 18 18 17 17 16 16 17 18 18 17 17 17 17 17 17 18 18 19 19 19 20 21 22 22 23 24 25 26 28 30 31 33 33 34 35 36 36 37 37 36 35 35 35 36 36 37 37 38 39 40 40 41 42 42 43 42 41 41 41 40 38
18 18 18 18 17 16 16 17 17 17 17 17 17 18 18 18 18 19 19 19 19 19 20 21 22 22 23 25 26 28 29 31 33 34 35 35 35 36 37 38 38 37 36 35 35 36 36 37 38 38 39 39 40 41 42 42 42 41 41 40 40 39 37
18 19 19 18 16 16 16 17 17 18 18 18 18 19 19 19 19 19 19 19 19 20 20 21 22 24 25 26 27 29 31 32 34 35 36 36 36 37 37 38 37 37 36 36 36 36 37 38 39 39 39 40 40 41 41 42 41 40 40 38 37 37 36
17 18 18 17 16 16 17 17 18 18 19 19 20 20 20 20 20 20 19 19 20 20 21 22 24 25 26 28 29 31 32 33 35 36 37 37 37 37 38 38 37 37 36 36 36 36 37 38 39 40 40 40 40 40 41 41 40 39 38 36 35 34 34
18 18 18 17 16 16 17 18 19 19 20 20 20 20 21 21 21 20 19 20 21 22 23 24 25 27 28 29 31 32 33 34 35 36 37 38 38 37 38 38 38 37 37 37 36 37 38 39 40 40 40 39 39 41 41 40 39 38 37 36 34 34 34
19 19 18 17 17 17 18 19 20 20 21 21 21 22 22 22 21 20 20 21 22 24 25 26 27 28 30 31 33 34 34 35 35 36 37 38 38 38 38 38 38 38 38 37 37 38 39 40 41 40 39 39 40 41 41 40 39 38 37 36 35 34 35
20 20 19 18 18 18 19 20 20 21 21 22 22 23 22 22 21 21 21 23 24 25 26 28 29 30 32 33 34 35 35 35 35 36 38 38 38 38 38 38 39 39 38 38 38 38 39 41 41 40 39 39 41 41 41 40 39 38 37 36 35 35 35
20 20 20 19 19 20 20 20 21 21 22 23 23 23 23 22 22 22 23 25 26 27 29 30 31 32 34 35 36 35 35 35 36 37 38 38 38 38 38 39 39 39 39 39 39 39 40 41 41 39 38 39 41 41 40 40 39 38 37 36 35 35 35
20 20 20 20 20 20 20 21 21 22 23 23 23 23 23 23 23 24 26 27 28 30 31 32 33 34 36 36 36 36 35 35 36 37 38 38 38 39 39 39 39 40 40 40 40 40 41 41 40 39 39 40 40 40 39 39 38 37 36 35 36 36 36
20 20 20 20 21 21 21 21 22 23 23 24 23 24 24 24 25 26 28 29 30 32 33 34 35 36 37 37 37 36 35 35 36 37 38 38 38 39 39 39 40 41 41 41 40 41 41 41 40 38 39 39 39 39 38 37 37 36 35 36 36 37 37
20 20 20 21 21 21 22 22 22 23 23 23 24 24 25 26 27 28 30 31 32 34 35 36 37 38 38 37 37 36 35 36 36 37 38 38 38 39 39 40 40 41 42 42 41 42 42 41 39 38 38 39 38 38 37 37 36 36 35 36 37 38 38
20 20 20 21 21 21 22 22 22 23 23 24 25 26 27 28 29 30 32 33 34 35 36 37 38 38 38 37 36 36 35 36 37 38 38 38 38 39 40 40 41 42 43 42 42 42 42 41 38 37 37 37 37 36 36 35 35 35 35 36 37 37 37
21 21 20 21 21 22 22 22 23 23 24 25 26 27 28 30 31 32 34 35 36 37 38 38 38 38 37 37 36 36 36 36 37 38 38 38 38 39 41 41 41 42 43 43 42 43 42 40 37 36 36 35 35 34 34 34 34 34 35 36 36 36 36
22 22 21 22 22 22 23 24 24 25 26 27 28 29 31 32 33 35 36 36 37 38 38 38 37 37 37 37 37 36 36 37 38 38 38 38 39 40 41 42 41 42 43 42 42 43 41 39 37 36 36 35 34 34 34 33 33 34 35 36 36 36 35
23 23 23 23 23 24 24 25 26 26 27 29 30 32 33 34 35 36 37 37 38 38 38 37 36 36 37 37 37 37 37 38 38 38 37 38 39 40 42 42 42 42 43 42 43 43 41 38 36 36 35 34 34 34 34 33 33 34 35 36 36 36 35
25 24 24 25 25 25 26 26 27 28 29 31 32 34 35 36 36 37 37 37 37 37 37 36 36 37 37 38 38 38 38 38 38 38 37 38 39 40 42 43 42 42 42 42 43 42 39 36 35 35 35 34 33 33 33 32 33 34 34 35 36 36 36
26 25 26 26 26 27 27 28 29 30 31 32 33 34 35 36 36 37 37 37 37 36 36 37 37 37 38 38 38 39 39 39 38 38 37 38 39 40 42 42 42 40 40 42 43 41 37 34 34 34 33 33 33 32 32 32 32 33 34 35 36 36 37
27 27 27 27 27 28 28 29 29 30 31 32 33 34 35 35 36 36 36 36 36 36 37 37 37 37 37 38 39 40 40 40 39 38 38 38 39 40 41 41 41 40 40 42 42 39 35 33 33 33 32 31 32 31 31 32 32 33 34 35 36 37 37
27 27 28 28 28 28 29 29 30 30 31 32 33 33 34 35 36 36 36 36 36 37 37 36 36 36 37 38 39 40 41 41 40 39 38 38 39 39 40 39 39 40 40 42 41 38 34 32 32 31 31 30 30 31 31 31 32 33 34 35 36 37 37
27 27 28 28 29 29 30 30 30 31 32 32 33 34 35 35 36 36 37 37 37 37 36 36 36 36 36 37 38 39 40 41 42 41 40 39 38 38 38 38 39 40 41 42 40 36 32 30 30 30 29 29 29 29 30 30 32 33 34 35 35 36 37
27 27 28 28 29 30 30 31 31 32 32 32 33 34 35 36 36 37 37 37 37 36 36 36 35 35 36 37 37 38 39 40 41 41 40 37 36 36 37 39 40 40 41 41 39 33 30 29 29 28 27 27 27 28 28 29 30 32 33 33 34 35 36
27 28 28 29 30 31 32 32 32 33 33 33 34 36 36 37 37 37 37 37 36 36 35 34 35 35 36 37 37 38 38 39 39 39 37 35 35 37 38 39 40 41 42 41 37 31 28 28 27 26 25 25 26 26 27 27 29 30 31 32 33 34 35
29 30 30 31 32 32 33 34 34 34 35 36 36 37 37 37 37 37 37 36 35 35 34 34 35 35 36 36 37 38 38 38 38 37 36 36 37 38 39 40 41 41 42 40 35 30 27 27 26 25 23 24 24 25 25 27 28 30 30 32 33 34 36
33 33 33 33 33 34 34 35 36 36 37 37 37 37 37 37 37 36 36 35 34 34 34 34 35 35 35 35 37 38 38 38 37 37 36 37 38 39 39 40 41 42 41 38 33 28 26 26 25 23 22 23 24 24 25 26 27 28 30 31 33 34 35
36 36 36 35 36 36 36 37 37 37 37 37 37 36 36 36 36 35 34 34 33 34 34 34 34 34 34 35 37 38 38 37 37 37 36 36 38 39 40 40 41 41 40 36 31 27 26 25 24 22 21 22 23 23 24 25 26 28 29 31 32 33 35
38 38 38 37 37 37 37 37 37 37 36 36 36 36 36 35 35 34 34 34 34 34 34 34 33 34 34 36 37 39 39 39 38 36 34 35 37 38 39 39 40 40 38 35 30 27 25 24 23 21 20 21 23 23 24 25 26 27 29 30 32 33 34
Wind_Direction
255 258 261 259 257 263 273 274 270 266 261 256 252 248 250 253 257 262 263 263 266 275 283 285 284 284 285 287 290 293 296 298 300 303 304 306 307 309 310 310 311 312 312 313 314 314 314 314 314 313 313 312 311 310 309 308 307 307 306 305 305 304 304
253 258 261 259 261 268 270 265 263 262 258 252 248 248 253 257 259 258 256 258 267 276 279 280 280 282 284 287 291 294 297 300 302 304 306 308 309 310 311 312 313 314 314 315 315 315 314 314 314 313 312 311 310 309 308 308 307 307 306 306 305 305 305
255 257 258 258 264 267 264 261 261 258 251 247 249 255 259 259 256 253 253 261 268 273 276 277 278 281 286 290 293 297 300 302 305 306 307 309 310 311 312 314 315 316 316 316 316 315 314 314 313 313 312 311 309 309 308 308 307 307 308 307 307 307 307
258 256 255 259 264 264 262 262 258 251 246 248 256 261 261 257 253 252 257 264 269 272 274 276 279 285 289 294 297 301 303 305 306 307 308 309 310 312 314 316 317 317 317 317 316 315 315 314 313 312 312 311 310 310 310 310 310 310 311 311 311 310 309
254 253 256 262 263 261 261 259 253 248 248 253 261 262 257 254 253 255 260 265 269 272 274 278 284 289 294 297 301 303 304 306 307 307 308 310 312 315 317 318 318 318 318 317 317 316 315 314 313 312 312 311 311 311 312 312 313 314 314 314 313 312 312
252 252 255 259 259 258 257 255 252 250 253 258 261 258 253 252 253 256 261 266 270 272 277 283 288 292 296 299 302 304 306 307 307 309 311 314 317 319 320 321 321 320 320 319 318 317 315 314 313 312 312 312 313 313 314 315 315 316 317 317 317 316 316
253 251 251 254 257 257 255 253 253 254 257 258 256 252 250 252 254 258 264 269 272 276 282 286 290 293 297 301 304 305 307 308 310 313 316 318 321 322 323 324 324 323 323 321 320 317 315 314 313 313 313 314 314 315 315 316 317 317 318 319 320 319 319
251 247 247 251 255 256 254 253 254 255 255 251 248 248 250 253 257 263 268 271 275 279 283 287 291 295 299 302 304 306 309 313 316 318 320 322 323 325 326 326 326 325 324 322 320 318 316 315 314 314 313 313 313 313 314 315 316 318 320 321 321 322 322
249 246 247 250 253 255 256 254 253 250 246 244 244 248 251 256 262 267 270 273 276 280 284 288 294 298 300 302 304 308 314 318 321 322 323 324 326 327 328 329 328 326 325 323 321 319 317 316 315 314 312 310 310 312 314 316 317 318 321 322 323 323 324
251 248 247 249 253 257 257 253 247 242 240 242 246 250 254 260 265 268 271 274 276 281 286 292 296 298 299 302 307 313 319 322 323 324 325 326 328 329 329 329 328 327 325 323 322 320 318 316 314 312 310 308 309 311 315 317 319 321 322 323 324 324 326
248 245 246 251 255 257 255 248 241 239 241 246 249 253 258 263 266 268 271 273 277 283 289 293 296 298 301 306 312 317 321 323 325 326 327 327 328 329 329 329 328 327 325 323 321 320 318 316 314 312 310 309 310 312 315 318 320 322 323 324 325 326 328
246 242 245 253 255 252 248 243 239 241 245 249 252 256 261 264 265 268 270 274 279 286 291 294 297 300 305 311 315 319 321 323 325 327 327 327 327 328 329 329 329 327 325 323 320 318 317 316 315 314 312 312 313 314 316 318 320 323 324 325 326 327 328
243 241 245 250 250 246 244 242 242 245 247 250 253 258 260 262 264 267 271 277 283 287 291 295 300 304 309 313 317 320 322 323 324 326 327 326 326 328 329 329 328 327 324 321 319 318 317 316 316 315 314 314 315 316 318 320 322 324 325 326 326 327 327
241 239 242 244 244 242 242 243 245 247 248 250 254 256 258 261 264 268 274 279 284 288 293 298 302 306 310 314 318 321 321 322 323 324 325 325 325 326 328 328 327 325 323 321 319 318 318 317 316 315 315 315 316 317 320 322 323 325 326 326 326 326 326
243 239 240 240 242 243 244 246 247 248 249 251 253 255 258 262 266 271 276 281 285 290 295 299 304 307 311 314 318 320 320 320 321 322 323 324 324 325 326 326 326 324 323 321 320 320 319 318 316 315 315 315 316 318 321 323 324 325 326 325 325 325 325
243 240 240 241 244 246 247 247 248 248 249 251 254 257 260 264 268 272 277 283 288 292 296 300 305 308 311 314 316 317 318 318 319 320 321 321 321 322 324 325 325 324 322 321 321 320 319 318 316 315 315 315 316 319 321 323 325 325 324 324 324 325 324
241 239 241 243 244 245 246 246 247 248 250 253 257 260 263 265 268 272 279 284 289 293 297 301 305 307 310 312 313 314 315 316 316 317 318 318 319 320 322 324 324 323 322 321 321 320 319 318 317 315 315 315 317 320 322 323 325 325 324 324 324 325 324
242 241 242 243 244 244 245 245 247 249 252 257 260 261 263 265 269 274 280 285 290 294 298 301 303 305 308 309 310 311 312 313 313 314 315 316 316 317 320 322 323 322 322 321 320 319 318 318 317 315 315 316 319 321 323 324 325 325 324 324 324 323 322
244 242 243 243 244 244 245 247 249 252 256 259 260 261 263 266 271 276 281 286 290 293 296 299 301 303 305 306 307 308 309 310 310 311 312 313 314 315 318 320 322 322 321 321 319 318 319 318 317 315 316 318 321 322 324 325 325 324 324 323 323 322 320
244 242 243 243 244 244 246 249 252 256 260 261 261 262 265 269 274 278 282 286 289 292 294 297 299 300 302 304 305 306 307 307 308 309 310 310 311 313 316 318 320 320 321 320 319 318 319 318 317 316 317 320 322 323 324 325 324 324 323 322 321 320 318
243 242 242 243 244 245 248 251 255 259 261 261 263 265 269 273 276 279 282 285 288 290 293 295 296 298 300 302 304 305 305 305 306 307 307 308 309 311 314 316 318 319 319 319 318 318 318 318 317 316 318 321 323 324 325 325 324 323 323 322 320 319 318
245 243 243 244 246 248 251 254 257 260 262 263 266 269 272 275 277 279 282 284 287 289 291 293 295 298 300 302 302 303 303 303 304 305 305 306 307 309 311 313 315 317 318 318 317 317 318 318 317 317 319 321 323 324 324 324 323 323 323 322 321 319 318
248 246 245 247 249 252 255 257 260 262 264 266 269 271 274 275 278 280 281 283 286 288 291 293 296 298 300 300 301 302 302 301 302 303 303 304 305 307 309 310 312 315 317 317 316 317 317 317 316 317 320 322 323 323 323 323 323 323 324 324 323 322 320
251 250 249 250 251 254 257 259 262 264 267 269 271 273 275 276 278 279 281 284 286 289 292 294 296 298 299 299 300 300 300 300 300 301 301 302 303 304 305 307 309 312 314 315 315 315 316 315 315 317 320 321 322 323 322 323 324 325 325 326 326 325 324
253 253 253 253 254 256 259 261 264 266 269 271 273 274 276 277 278 280 282 285 288 290 293 294 296 297 298 299 299 299 298 298 298 299 299 300 301 302 303 304 307 310 312 313 313 314 314 313 313 316 319 320 321 322 323 325 326 327 328 328 328 328 327
255 256 256 256 257 259 261 263 265 267 270 271 273 274 275 277 279 281 283 286 289 291 292 294 296 298 299 299 298 298 297 296 296 297 297 298 299 300 301 302 304 307 310 311 311 312 311 311 313 316 318 320 321 323 324 326 328 329 330 330 330 330 330
256 257 258 259 260 261 263 264 265 266 268 269 271 272 275 277 280 282 285 287 289 291 293 295 297 298 299 299 297 296 295 295 295 295 295 296 297 298 299 300 303 305 307 309 310 310 309 310 313 315 317 320 322 324 325 328 329 330 330 331 331 331 331
256 258 259 260 261 263 264 264 265 266 268 269 271 274 276 279 281 283 285 288 289 292 294 297 298 299 298 298 298 295 294 294 294 293 293 294 295 296 298 300 303 305 306 308 310 310 309 310 313 315 317 320 323 324 327 329 329 330 331 332 332 332 332
257 258 260 261 263 264 265 266 267 268 270 271 273 275 277 279 281 283 286 288 291 294 296 297 298 298 297 298 299 295 292 292 292 292 292 292 293 296 298 301 304 305 307 309 310 309 309 311 313 315 317 321 323 325 327 329 329 331 332 333 332 332 333
257 259 261 263 264 265 267 269 270 271 272 274 275 277 279 280 282 285 288 291 293 296 296 296 296 296 296 298 299 295 292 292 292 290 289 290 292 295 297 300 304 306 308 309 309 308 309 311 313 315 318 321 323 325 328 329 330 331 332 332 332 333 334
259 261 263 265 267 268 269 270 271 272 274 276 278 279 281 283 286 288 291 293 294 295 295 295 295 295 296 297 297 294 294 295 295 292 288 288 291 294 297 301 305 307 309 309 307 307 309 311 312 314 318 321 323 325 327 328 329 331 331 331 331 332 334
261 263 265 267 269 270 271 272 273 274 276 278 280 282 284 286 288 290 291 292 293 293 293 293 294 295 297 297 295 293 294 296 298 296 292 292 295 298 300 303 306 308 308 307 305 306 308 310 311 314 318 320 322 323 325 326 327 328 328 329 330 332 333
264 267 270 272 273 273 274 275 276 277 279 281 283 284 285 287 288 290 291 291 291 291 292 293 295 296 298 298 294 291 292 295 297 299 298 299 301 302 303 305 306 306 306 304 304 306 308 308 309 313 317 318 319 320 322 324 325 326 327 328 329 330 332
268 272 275 276 276 276 276 277 278 279 281 283 284 285 285 287 288 289 290 290 290 291 292 294 296 297 298 297 293 291 291 293 295 298 300 301 301 302 303 304 304 304 304 303 304 306 306 306 308 312 315 316 316 317 320 322 324 326 326 327 328 330 333
272 274 276 277 277 277 277 277 278 280 282 283 284 285 285 287 288 288 288 289 289 291 293 295 296 297 296 296 294 292 290 290 293 296 297 298 299 300 301 302 302 303 302 302 304 305 305 304 305 309 312 312 312 314 318 321 323 326 327 327 329 332 334
273 275 276 277 277 277 277 278 280 282 283 284 284 284 285 286 286 286 287 288 290 292 295 296 296 296 296 295 295 293 289 286 289 292 293 295 296 297 298 299 300 302 302 302 303 303 302 301 303 306 309 308 308 312 316 320 324 326 327 328 330 333 335
274 274 275 276 276 277 278 279 281 283 283 283 283 283 284 284 284 286 287 289 291 294 296 297 296 296 296 297 297 296 291 286 286 289 290 292 294 295 297 299 300 301 302 301 300 300 299 298 299 303 305 304 305 310 316 320 323 326 327 328 331 334 336